Tracking 27126 objects as of 30-Mar-2023
HD Live streaming from Space Station
objects crossing your sky now

MIMAN

Track MIMAN now!
10-day predictions


NORAD ID: 52900
Int'l Code: 2022-065G
Perigee: 698.4 km
Apogee: 711.2 km
Inclination: 98.1 °
Period: 98.7 minutes
Semi major axis: 7075 km
RCS: Unknown
Launch date: June 21, 2022
Source: South Korea (SKOR)
Launch site: Naro Space Center, South Korea (NSC)
Your satellite tracking list
Your tracking list is empty




NASA's NSSDC Master Catalog

Two Line Element Set (TLE):
1 52900U 22065G   23089.20484775  .00001250  00000-0  27793-3 0  9999
2 52900  98.0534 236.2243 0009010  96.2347 263.9886 14.58612687 38955
Source of the keplerian elements: AFSPC